Flag Weather past 2 weeks in Midland, Texas, U.S.A.

Now
54 °F

Clear.


Feels Like: 52 °F
Forecast: 49 / 68 °F
Wind: 9 mph from West

Location: Midland - Midland Airpark

Current Time: Nov 23, 2014 at 12:22:54 AM

Latest Report: Nov 22, 2014 at 11:55 PM


Visibility: 10 mi

Pressure: 29.77 "Hg

Humidity: 55%

Dew point: 39 °F

Location of MidlandLocation

Historic Weather in Midland — Graph

°F

Midland temperature yesterday

Maximum temperature yesterday: 69 °F (at 3:15 PM)
Minimum temperature yesterday: 54 °F (at 10:35 PM)
Average temperature yesterday: 60 °F

Past Weeks' High & Low Weather Summary

 TemperatureHumidityPressure
High82 °F (Nov 10, 3:15 PM)100% (Nov 8, 2:15 AM)30.56 "Hg (Nov 8, 2:15 AM)
Low23 °F (Nov 17, 7:15 AM)12% (Nov 19, 2:55 PM)29.67 "Hg (Nov 10, 4:55 PM)
Average47 °F56%30.13 "Hg
* Reported Nov 7 11:15 PM — Nov 22 11:15 PM, Midland, Weather by CustomWeather, © 2014

Note: Actual official high and low records may vary slightly from our data, if they occured in-between our weather recording intervals... More about our weather records

Advertising

Midland weather history for previous 24 hours

 ConditionsComfort  
Time TempWeatherWind HumidityBarometerVisibility
11:15 PM
Nov 22
55 °FClear.9 mph58%29.78 "Hg10 mi
10:55 PM54 °FClear.8 mph61%29.78 "Hg10 mi
10:35 PM54 °FClear.9 mph65%29.79 "Hg10 mi
10:15 PM56 °FClear.7 mph69%29.80 "Hg10 mi
9:55 PM55 °FFog.No wind100%29.80 "Hg5 mi
9:35 PM55 °FFog.No wind100%29.80 "Hg5 mi
9:15 PM56 °FFog.No wind100%29.81 "Hg5 mi
8:55 PM57 °FFog.No wind100%29.80 "Hg4 mi
8:15 PM58 °FClear.No wind90%29.80 "Hg7 mi
7:55 PM59 °FFog.3 mph89%29.80 "Hg5 mi
7:15 PM60 °FPassing clouds.3 mph87%29.80 "Hg7 mi
6:55 PM61 °FPassing clouds.No wind77%29.80 "Hg10 mi
6:15 PM62 °FClear.No wind68%29.80 "Hg10 mi
5:55 PM63 °FClear.No wind67%29.80 "Hg10 mi
5:15 PM64 °FSunny.No wind75%29.79 "Hg10 mi
4:55 PM65 °FScattered clouds.No wind73%29.79 "Hg10 mi
4:15 PM67 °FSunny.No wind68%29.78 "Hg10 mi
3:55 PM66 °FScattered clouds.5 mph76%29.79 "Hg10 mi
3:35 PM68 °FPartly sunny.8 mph73%29.80 "Hg10 mi
3:15 PM69 °FBroken clouds.No wind56%29.80 "Hg10 mi
2:55 PM69 °FThunderstorms. Scattered clouds.6 mph61%29.81 "Hg10 mi
2:35 PM69 °FSunny.8 mph64%29.82 "Hg10 mi
2:15 PM67 °FScattered clouds.5 mph70%29.82 "Hg10 mi
1:55 PM66 °FRain. Cloudy.5 mph71%29.83 "Hg7 mi
1:35 PM67 °FCloudy.8 mph70%29.84 "Hg10 mi
1:15 PM67 °FScattered clouds.No wind70%29.86 "Hg10 mi
12:55 PM66 °FSunny.No wind74%29.88 "Hg10 mi
12:35 PM64 °FSunny.No wind79%29.89 "Hg10 mi
12:15 PM63 °FSunny.6 mph84%29.89 "Hg7 mi
11:55 AM62 °FScattered clouds.7 mph87%29.90 "Hg7 mi
11:15 AM59 °FThundershowers. Broken clouds.3 mph100%29.93 "Hg10 mi
10:55 AM58 °FThundershowers. Broken clouds.3 mph100%29.94 "Hg10 mi
10:35 AM58 °FThundershowers. Fog.6 mph100%29.95 "Hg5 mi
10:15 AM58 °FThundershowers. Fog.No wind100%29.96 "Hg5 mi
9:55 AM58 °FThunderstorms. Fog.No wind100%29.97 "Hg5 mi
9:35 AM58 °FThunderstorms. Broken clouds.3 mph100%29.96 "Hg7 mi
9:15 AM58 °FThunderstorms. Cloudy.6 mph100%29.95 "Hg3 mi
8:55 AM58 °FStrong thunderstorms. More clouds than sun.9 mph91%29.96 "Hg5 mi
8:35 AM58 °FStrong thunderstorms. Cloudy.No wind100%29.95 "Hg1 mi
8:15 AM59 °FThunderstorms. Fog.3 mph100%29.96 "Hg5 mi
7:55 AM59 °FThunderstorms. Fog.No wind100%29.97 "Hg5 mi
7:15 AM59 °FThundershowers. Partly cloudy.6 mph100%29.95 "Hg10 mi
6:55 AM59 °FThundershowers. Partly cloudy.5 mph100%29.95 "Hg10 mi
6:15 AM58 °FThundershowers. Partly cloudy.No wind91%29.96 "Hg10 mi
5:55 AM58 °FOvercast.No wind91%29.96 "Hg10 mi
5:35 AM58 °FMostly cloudy.3 mph90%29.96 "Hg10 mi
5:15 AM58 °FOvercast.5 mph89%29.96 "Hg10 mi
4:55 AM58 °FMostly cloudy.6 mph89%29.97 "Hg10 mi
4:35 AM58 °FMostly cloudy.6 mph89%29.97 "Hg10 mi
4:15 AM58 °FOvercast.5 mph89%29.97 "Hg10 mi
3:55 AM58 °FOvercast.No wind89%29.98 "Hg10 mi
3:15 AM58 °FOvercast.No wind90%29.97 "Hg10 mi
2:55 AM58 °FMostly cloudy.No wind89%29.97 "Hg10 mi
2:35 AM58 °FMostly cloudy.3 mph88%29.97 "Hg10 mi
2:15 AM58 °FMostly cloudy.6 mph88%29.97 "Hg10 mi
1:55 AM58 °FMostly cloudy.No wind87%29.99 "Hg10 mi
1:35 AM58 °FOvercast.No wind88%29.99 "Hg10 mi
1:15 AM58 °FOvercast.No wind86%29.99 "Hg10 mi
12:55 AM58 °FOvercast.3 mph86%29.99 "Hg10 mi
12:15 AM58 °FOvercast.5 mph84%29.99 "Hg10 mi
Weather by CustomWeather, © 2014

See weather overviewHow to use our weather pages